Location: Newark
(44.0160°N, 116.9215°W)
Time: 23:49:47
(UTC+00:00)

Envisat - Pass Details

Date: 21 November 2019
Orbit: 764 x 766 km, 98.1° (Epoch: 12 December)

Event Time Altitude Azimuth Distance (km) Brightness Sun altitude
Rises 13:07:24 0° 35° (NE) 3,239 6.6 -18.3°
Reaches altitude 10° 13:11:44 10° 71° (ENE) 2,305 6.4 -17.5°
Maximum altitude 13:13:08 11° 87° (E) 2,229 6.6 -17.3°
Drops below altitude 10° 13:14:32 10° 103° (ESE) 2,300 6.8 -17.0°
Sets 13:18:49 0° 138° (SE) 3,218 7.1 -16.3°
